This is the latest recevied weather packets stored in our database for station/object N0ZMJ-4. If no packets are shown the sender has not sent any weather packets the latest 10 day(s).
| Time | Temp. | Humidity | Pressure | Rain* | Wind** | Luminosity | Snow |
|---|---|---|---|---|---|---|---|
| 1777500003 | 13.33° C | 51% | 1015 hPa | 0 mm | - | - | - |
| 1777499703 | 13.33° C | 49% | 1014.9 hPa | 0 mm | - | - | - |
| 1777499403 | 13.33° C | 51% | 1014.8 hPa | 0 mm | - | - | - |
| 1777499103 | 13.89° C | 50% | 1014.9 hPa | 0 mm | - | - | - |
| 1777498803 | 13.89° C | 49% | 1014.9 hPa | 0 mm | - | - | - |
| 1777498503 | 13.89° C | 46% | 1014.9 hPa | 0 mm | - | - | - |
| 1777498203 | 13.89° C | 48% | 1015 hPa | 0 mm | - | - | - |
| 1777497903 | 13.89° C | 48% | 1015.1 hPa | 0 mm | - | - | - |
| 1777497603 | 13.89° C | 46% | 1015.2 hPa | 0 mm | - | - | - |
| 1777497303 | 14.44° C | 46% | 1015.3 hPa | 0 mm | - | - | - |
| 1777497004 | 14.44° C | 46% | 1015.2 hPa | 0 mm | - | - | - |
| 1777496703 | 15° C | 46% | 1015.2 hPa | 0 mm | - | - | - |
| 1777496402 | 15° C | 47% | 1015.3 hPa | 0 mm | - | - | - |
| 1777496103 | 15° C | 50% | 1015.4 hPa | 0 mm | - | - | - |
| 1777495803 | 14.44° C | 48% | 1015.4 hPa | 0 mm | - | - | - |
| 1777495503 | 14.44° C | 47% | 1015.3 hPa | 0 mm | - | - | - |
| 1777495203 | 14.44° C | 47% | 1015.3 hPa | 0 mm | - | - | - |
| 1777494903 | 14.44° C | 48% | 1015.3 hPa | 0 mm | - | - | - |
| 1777494603 | 13.89° C | 47% | 1015.5 hPa | 0 mm | - | - | - |
| 1777494303 | 13.89° C | 50% | 1015.5 hPa | 0 mm | - | - | - |
| 1777494003 | 13.89° C | 46% | 1015.5 hPa | 0 mm | - | - | - |
| 1777493702 | 13.89° C | 46% | 1015.6 hPa | 0 mm | - | - | - |
| 1777493403 | 13.89° C | 45% | 1015.6 hPa | 0 mm | - | - | - |
| 1777493103 | 13.89° C | 45% | 1015.7 hPa | 0 mm | - | - | - |
| 1777492803 | 14.44° C | 48% | 1015.8 hPa | 0 mm | - | - | - |
* Rain latest hour (hover to see other rain measurements)
** Current wind speed in m/s (hover to see current wind gust speed)